{"data":{"norad_id":69292,"epoch":"2026-09-20T05:05:07.190592Z","epoch_age_seconds":55745,"freshness":"FRESH","line1":"1 69292U 26118AB  26263.21188878  .00000186  00000+0  53431-4 0  9992","line2":"2 69292  51.9027 332.9685 0000322  72.6685 287.4313 14.79930903 18339","mean_motion":14.79930903,"eccentricity":3.22e-5,"inclination_deg":51.9027,"raan_deg":332.9685,"arg_perigee_deg":72.6685,"mean_anomaly_deg":287.4313,"bstar":5.3431e-5,"rev_number":1833,"period_min":97.301840044082,"perigee_km":629.31660162036,"apogee_km":629.76789616399,"semimajor_km":7007.6792488922,"source":"CELESTRAK","updated_at":"2026-09-20T09:00:24.808461Z"}}